Location: Binningen
(47.7924°N, 8.7261°E)
Time: 04:17:27
(UTC+00:00)

Cosmos 1733 Rocket - Pass Details

Date: 04 October 2021
Orbit: 604 x 627 km, 82.5° (Epoch: 16 October)

Event Time Altitude Azimuth Distance (km) Brightness Sun altitude
Rises 18:10:51 0° 247° (WSW) 2,855 7.6 -13.0°
Reaches altitude 10° 18:15:17 10° 290° (WNW) 1,963 7.0 -13.8°
Maximum altitude 18:15:56 10° 299° (WNW) 1,946 6.8 -13.9°
Drops below altitude 10° 18:16:36 10° 308° (NW) 1,966 6.6 -14.0°
Sets 18:21:04 0° 351° (N) 2,885 6.7 -14.7°
